Regional Weather Roundup
Issued by NWS

Home | Current Version | Previous Version | Text Only | Print | Product List | Glossary On
Versions: 1 2 3 4 5 6 7 8 9 10 11 12 13 14 15 16 17 18 19 20 21 22 23 24 25 26 27 28 29 30 31 32 33 34 35 36 37 38 39 40 41 42 43 44 45 46 47 48 49 50
000
ASUS44 KFWD 271615
RWRTX
NORTH TEXAS HOURLY WEATHER ROUNDUP
NATIONAL WEATHER SERVICE FORT WORTH TX
1100 AM CDT TUE SEP 27 2016

NOTE: "FAIR" INDICATES FEW OR NO CLOUDS BELOW 12,000 FEET WITH NO
SIGNIFICANT WEATHER AND/OR OBSTRUCTIONS TO VISIBILITY.

TXZ118-119-271700-
DALLAS/FORT WORTH METROPLEX

CITY           SKY/WX    TMP DP  RH WIND       PRES   REMARKS
DFW AIRPORT    PTSUNNY   73  53  49 N5        30.13R
DALLAS LOVE    PTSUNNY   73  50  44 NW7       30.13S
FTW MEACHAM    CLOUDY    72  49  44 N7        30.14S
DAL-EXECUTIVE  PTSUNNY   73  53  49 NW6       30.13R
FTW-ALLIANCE   PTSUNNY   71  50  47 N6        30.14S
FTW-NAS-JRB    CLOUDY    70  52  52 N3        30.15R
FTW-SPINKS     SUNNY     70  50  49 N5        30.16R
ARLINGTON      CLOUDY    71  53  52 NW6       30.14R
GRAND PRAIRIE  SUNNY     68  52  56 NW5       30.15R
ADDISON        SUNNY     72  55  56 NW6       30.14S
MESQUITE       SUNNY     72  57  60 CALM      30.13R
LANCASTER      CLOUDY    73  50  44 N3        30.14S
$$

TXZ091>094-102>105-117-120-121-131>134-271700-
NORTH CENTRAL TEXAS

CITY           SKY/WX    TMP DP  RH WIND       PRES   REMARKS
SHRMAN/DENISON CLOUDY    66  56  71 CALM      30.16S
GAINESVILLE      N/A     63  50  62 NW6       30.18R
BOWIE          CLOUDY    68  48  49 N5        30.17S
BRIDGEPORT     CLOUDY    69  52  53 N3        30.18S
DECATUR        CLOUDY    71  45  39 N3        30.16S
DENTON         MOSUNNY   71  52  50 N8        30.14S
MCKINNEY       SUNNY     70  55  59 N6        30.13S
GREENVILLE     SUNNY     72  52  49 CALM      30.12F
ROCKWALL       SUNNY     71  53  51 N3        30.12S
TERRELL        CLOUDY    73  54  51 N5        30.13R
WAXAHACHIE     CLOUDY    70  55  59 NW3       30.15R
CLEBURNE       CLOUDY    68  54  60 N5        30.16S
GRANBURY       CLOUDY    70  50  49 NW3       30.17S
$$

TXZ083>090-098>101-113>116-127>130-139>142-154-155-271700-
WESTERN NORTH TEXAS

CITY           SKY/WX    TMP DP  RH WIND       PRES   REMARKS
WICHITA FALLS  PTSUNNY   65  52  62 NW6       30.16F
WF-KICKAPOO    CLOUDY    67  48  50 N7        30.18F
VERNON         SUNNY     70  40  33 W5        30.18F
ABILENE        CLOUDY    65  51  60 CALM      30.21R
ABILENE-DYESS  PTSUNNY   64  47  53 W5        30.20R
CISCO          MOSUNNY   66  48  52 CALM      30.20R
BRECKENRIDGE     N/A     66  52  59 CALM      30.18S HAZE
GRAHAM         MOSUNNY   68  51  54 CALM      30.16S
MINERAL WELLS  CLOUDY    69  49  48 N7        30.15S
STEPHENVILLE   CLOUDY    68  49  49 N3        30.19S
COMANCHE       MOSUNNY   66  53  63 N7        30.18S
BROWNWOOD      MOSUNNY   68  50  52 N6        30.19R
COLEMAN        CLOUDY    68  48  49 N6        30.20R
$$

TXZ143>147-156>162-174-175-271700-
CENTRAL TEXAS

CITY           SKY/WX    TMP DP  RH WIND       PRES   REMARKS
WACO           CLOUDY    72  60  66 N8        30.13R
WACO-TSTC      CLOUDY    70  59  68 N5        30.13S
WACO-MCGREGOR  CLOUDY    69  60  73 N8        30.13S
HILLSBORO      CLOUDY    70  58  64 N7        30.14S
CORSICANA      CLOUDY    75  58  55 N7        30.13S
MEXIA          CLOUDY    69  60  71 N6        30.11S
HEARNE         CLOUDY    72  62  72 NW8       30.12R
CAMERON        CLOUDY    72  62  71 N10       30.11S
KILLEEN        CLOUDY    69  58  68 NE9       30.13S
KILLEEN-SKYLRK CLOUDY    70  59  68 N9        30.14R
FORT HOOD      CLOUDY    68  57  68 NE9       30.11R
GATESVILLE     CLOUDY    72  57  60 N5        30.16S
HAMILTON       CLOUDY    71  54  54 N7        30.17S
LAMPASAS       CLOUDY    71  60  70 N7        30.14S
$$

TXZ095>097-106>112-122>126-135>138-148>153-164>167-271700-
EAST TEXAS

CITY           SKY/WX    TMP DP  RH WIND       PRES   REMARKS
PARIS          CLOUDY    72  55  56 N3        30.12F
SULPHUR SPRNGS CLOUDY    75  55  48 N5        30.14S
MOUNT PLEASANT MOSUNNY   74  55  51 N5        30.12S
GILMER         CLOUDY    72  57  60 N7        30.11S
MINEOLA        CLOUDY    72  59  64 N5        30.11F
TYLER          CLOUDY    73  57  57 NE7       30.10F
LONGVIEW       CLOUDY    73  57  57 NE8       30.09S
MARSHALL       CLOUDY    70  56  60 NE5       30.12R
ATHENS         CLOUDY    70  55  60 N7        30.10R
PALESTINE      CLOUDY    73  60  64 NE8       30.11F
JACKSONVILLE   PTSUNNY   73  57  57 E8        30.12F
HENDERSON      SUNNY     73  56  54 N7        30.11S
CENTER         MOSUNNY   75  59  56 N7        30.08S
NACOGDOCHES    MOSUNNY   73  55  53 NE7       30.07R
LUFKIN         MOSUNNY   73  59  61 VRB5      30.08R
$$

SUPPLEMENTAL OBSERVATIONS (CENTRAL)

CITY           SKY/WX    TMP DP  RH WIND       PRES   REMARKS
DENISON DAM      N/A     66  50  55 NE3         N/A
CADDO GRASSLND   N/A     66  55  68 N2          N/A
PAT MAYSE LAKE   N/A     66  57  72 SW1         N/A
GREENVILLE       N/A     75  55  50 N3          N/A
CEDAR HILL       N/A     73  54  49 NE2         N/A
ATHENS           N/A     73  57  56 NE2         N/A
LAKE LIMESTONE   N/A     73  59  60 N8G16       N/A
MCGREGOR         N/A    N/A N/A N/A N6          N/A
TEMPLE           N/A     72  59  64 N2G14       N/A
$$

SUPPLEMENTAL OBSERVATIONS (WEST)

CITY           SKY/WX    TMP DP  RH WIND       PRES   REMARKS
MILLERS CREEK    N/A     68  50  52 N3          N/A
POSSUM KINGDOM   N/A     66  54  63 N3          N/A
LBJ GRASSLAND    N/A     72  54  53 NW3         N/A
GRANBURY         N/A     70  50  49 N5          N/A
COMANCHE         N/A     66  50  55 N7          N/A
HAMBY            N/A     64  52  63 W2          N/A
IVIE RESERVOIR   N/A     72  48  43 N5          N/A
COLORADO BEND    N/A     70  59  68 NE3         N/A
$$

SUPPLEMENTAL OBSERVATIONS (EAST)

CITY           SKY/WX    TMP DP  RH WIND       PRES   REMARKS
TEXARKANA        N/A     75  55  50 NE5         N/A
LINDEN           N/A     77  57  50 E2          N/A
CADDO LAKE       N/A     72  59  64 NE2         N/A
HENDERSON        N/A     75  57  53 N8          N/A
LUFKIN           N/A     77  59  53 MISG        N/A
N SABINE NF      N/A     77  63  61 MISG        N/A
$$

SUPPLEMENTAL OBSERVATIONS ARE A COLLECTION OF AUTOMATED INSTRUMENTS
THAT ARE MAINTAINED BY A VARIETY OF FEDERAL AND STATE AGENCIES.
CERTAIN ELEMENTS...SUCH AS HUMIDITY VALUES AND SUSTAINED WIND
SPEEDS...MAY BE APPROXIMATED.





USA.gov is the U.S. government's official web portal to all federal, state and local government web resources and services.